Location: ?????????
(55.6553°N, 38.9075°E)
Time: 01:56:09
(UTC+00:00)

Cosmos 1356 - Pass Details

Date: 18 October 2019
Orbit: 447 x 448 km, 81.1° (Epoch: 21 November)

Event Time Altitude Azimuth Distance (km) Brightness Sun altitude
Rises 02:01:33 0° 347° (NNW) 2,469 7.1 -17.4°
Reaches altitude 10° 02:03:38 10° 351° (N) 1,592 6.2 -17.1°
Maximum altitude 02:07:05 63° 73° (ENE) 509 3.9 -16.6°
Drops below altitude 10° 02:10:31 10° 156° (SSE) 1,580 6.4 -16.1°
Sets 02:12:35 0° 159° (SSE) 2,447 7.3 -15.8°
